Tokyo Downtown, Japan

12:24 AM JST on December 12, 2019 (GMT +0900)
Tokyo Downtown

Weather History for RJTD - October, 2019

Change the Weather History Date:

Monday, October 7, 2019

  Actual Average (WUND) Record (WUND)
Temperature  
Mean Temperature 70 °F -  
Max Temperature 77 °F 68 °F - (-1)
Min Temperature 63 °F 56 °F - (-1)
Cooling Degree Days 5    
Growing Degree Days 20 (Base 50)    
Moisture  
Dew Point 61 °F    
Average Humidity 71    
Maximum Humidity 100    
Minimum Humidity 52    
Precipitation  
Precipitation 0.08 in 0.19 in - ()
Sea Level Pressure  
Sea Level Pressure 30.17 in    
Wind  
Wind Speed 5 mph ()    
Max Wind Speed 9 mph    
Max Gust Speed -    
Visibility 11.2 miles    
Events Rain    
Averages and records for this station are not official NWS values.
T = Trace of Precipitation, MM = Missing Value Source: Averaged Metar Reports

Daily Weather History Graph

Daily Weather History Graph

Search for Another Location

Airport or City:

Astronomy

Oct. 07, 2019 Rise Set
Actual Time 5:40 AM JST 5:17 PM JST
Civil Twilight 5:14 AM JST 5:42 PM JST
Nautical Twilight 4:44 AM JST 6:12 PM JST
Astronomical Twilight 4:15 AM JST 6:41 PM JST
Moon 1:58 PM JST (10/7) No Moon Set
Length of Visible Light 12h 28m
Length of Day
11h 37m
Waxing Gibbous, 64% of the Moon is Illuminated
Oct 7
Waxing Gibbous
Oct 14
Full
Oct 21
Last Quarter
Oct 28
New
Nov 4
First Quarter

Hourly Weather History & Observations

Time (JST) Temp. Dew Point Humidity Pressure Visibility Wind Dir Wind Speed Gust Speed Precip Events Conditions
12:00 AM 66 °F 60 °F 75% 30.22 in - NNE 9.2 mph - -  
12:00 AM - - N/A% - - North - - N/A   Unknown
1:00 AM 66 °F 59 °F 71% 30.22 in - NNE 4.6 mph - -  
3:00 AM 64 °F 58 °F 76% 30.22 in 12 mi North 3.5 mph - -   Partly Cloudy
3:00 AM - - N/A% - - North - - N/A   Unknown
4:00 AM 65 °F 58 °F 73% 30.22 in - NW 5.8 mph - -  
5:00 AM 64 °F 58 °F 75% 30.21 in - North 4.6 mph - -  
6:00 AM 64 °F 58 °F 77% 30.23 in 12 mi NNW 5.8 mph - -   Scattered Clouds
6:00 AM - - N/A% - - North - - N/A   Unknown
7:00 AM 65 °F 58 °F 70% 30.23 in - NNE 3.5 mph - -  
9:00 AM 67 °F 59 °F 68% 30.25 in 12 mi NNW 5.8 mph - -   Overcast
10:00 AM 69 °F 59 °F 62% 30.22 in - NNE 4.6 mph - -  
11:00 AM 71 °F 59 °F 57% 30.19 in - NW 5.8 mph - -  
1:00 PM 74 °F 60 °F 52% 30.13 in - North 4.6 mph - -  
2:00 PM 74 °F 60 °F 53% 30.12 in - NE 6.9 mph - -  
3:00 PM 73 °F 62 °F 60% 30.12 in 16 mi NNE 6.9 mph - -   Partly Cloudy
4:00 PM 72 °F 62 °F 64% 30.12 in - NE 5.8 mph - -  
5:00 PM 72 °F 63 °F 65% 30.12 in - East 6.9 mph - -  
6:00 PM 69 °F 64 °F 79% 30.12 in 9 mi East 6.9 mph - - Rain Light Rain Showers
7:00 PM 69 °F 64 °F 81% 30.14 in - East 3.5 mph - -  
8:00 PM - - N/A% - - North - - N/A   Unknown
9:00 PM 66 °F 66 °F 99% 30.12 in 6 mi East 3.5 mph - - Rain Light Rain Showers
11:00 PM 65 °F 65 °F 100% 30.07 in - NNW 3.5 mph - -